Regional Weather Roundup
Issued by NWS

Home | Current Version | Previous Version | Text Only | Print | Product List | Glossary On
Versions: 1 2 3 4 5 6 7 8 9 10 11 12 13 14 15 16 17 18 19 20 21 22 23 24 25 26 27 28 29 30 31 32 33 34 35 36 37 38 39 40 41 42 43 44 45 46 47 48 49 50
000
ASUS43 KIND 280009
RWRIN

WEATHER ROUNDUP FOR INDIANA
NATIONAL WEATHER SERVICE INDIANAPOLIS IN
800 PM EDT THU AUG 27 2015

NOTE: "FAIR" INDICATES FEW OR NO CLOUDS BELOW 12,000 FEET WITH NO
SIGNIFICANT WEATHER AND/OR OBSTRUCTIONS TO VISIBILITY.

* - STATION DOES NOT REPORT WEATHER SUCH AS PRECIPITATION OR FOG.

+ - STATION NOT QUALITY CONTROLLED BY THE NATIONAL WEATHER SERVICE.
    USE DATA WITH CAUTION...ESPECIALLY DEWPOINT AND RELATIVE
    HUMIDITY OBSERVATIONS.

INZ001>003-010>013-019-020-280100-
NORTHWEST INDIANA

CITY           SKY/WX    TMP DP  RH WIND       PRES   REMARKS
GARY /AIRPORT/ MOCLDY    68  55  64 E5        30.14F
KNOX *+        CLEAR     66  55  68 NE5       30.14S
LA PORTE +     CLEAR     67  59  75 E3        30.15F
6HR MIN TEMP:  67; 6HR MAX TEMP:  73;

MICHIGAN CITY+ CLEAR     63  55  77 CALM      30.15F
MONTICELLO +   CLEAR     69  60  74 CALM      30.13S
6HR MIN TEMP:  69; 6HR MAX TEMP:  75;

RENSSELAER +   PTCLDY    68  61  77 CALM      30.13F
VALPARAISO     PTCLDY    66  59  78 NE3       30.14F
6HR MIN TEMP:  66; 6HR MAX TEMP:  73;


$$

LMZ046-743>745-280100-
SOUTHERN LAKE MICHIGAN

STATION/POSITION TIME  TEMP    WIND        PRES    WAVE
                       AIR SEA DIR/SP/G            HT
                 (UTC) (F)     (DEG/KT/KT) (MB)    (FT)
BURNS HARBOR     2300   70      60/  5/  6 1021.3R
MICHIGAN CITY    2300   69     350/  3/  4   N/A
5NW MICH CITY    0000   67 71  100/  4/  6   N/A     0

$$

INZ004-005-014>016-021>024-280100-
NORTH CENTRAL INDIANA

CITY           SKY/WX    TMP DP  RH WIND       PRES   REMARKS
ELKHART        CLEAR     66  55  68 CALM      30.17R
GOSHEN         CLEAR     65  57  75 NE3       30.15S
6HR MIN TEMP:  65; 6HR MAX TEMP:  72;

LOGANSPORT +   CLEAR     68  55  64 CALM      30.14S
PERU/GRISSOM   CLEAR     69  58  68 E3        30.13S
6HR MIN TEMP:  69; 6HR MAX TEMP:  75;

ROCHESTER +    MOCLDY    72  59  64 NE3       30.15S
SOUTH BEND     CLEAR     66  56  70 W3        30.16R
6HR MIN TEMP:  66; 6HR MAX TEMP:  71;

WARSAW +       MOCLDY    64  57  77 CALM      30.15R

$$

INZ006>009-017-018-025>027-280100-
NORTHEAST INDIANA

CITY           SKY/WX    TMP DP  RH WIND       PRES   REMARKS
ANGOLA *+      CLEAR     64  55  72 CALM      30.16S
AUBURN +       CLEAR     64  55  72 CALM      30.16S
FORT WAYNE     PTCLDY    69  56  62 SE3       30.15S
6HR MIN TEMP:  69; 6HR MAX TEMP:  75;

HUNTINGTON +   CLEAR     67  54  64 CALM      30.15R
6HR MIN TEMP:  67; 6HR MAX TEMP:  74;


$$

INZ028-029-035-036-043>045-051>053-280100-
WEST CENTRAL INDIANA

CITY           SKY/WX    TMP DP  RH WIND       PRES   REMARKS
CRAWFORDSVL +  CLEAR     67  61  79 CALM      30.12F
6HR MIN TEMP:  67; 6HR MAX TEMP:  75;

GREENCASTLE +  PTCLDY    70  55  60 CALM      30.13S
LAFAYETTE      PTCLDY    71  58  63 N5        30.11F
6HR MIN TEMP:  71; 6HR MAX TEMP:  78;

TERRE HAUTE    MOCLDY    76  63  64 NE3       30.10F
6HR MIN TEMP:  76; 6HR MAX TEMP:  82;


$$

INZ030>032-037>040-046>048-054>057-064-065-280100-
CENTRAL INDIANA

CITY           SKY/WX    TMP DP  RH WIND       PRES   REMARKS
COLUMBUS       CLEAR     73  50  43 SE5       30.12S
FRANKFORT +    CLEAR     68  61  78 NE3       30.14F
6HR MIN TEMP:  68; 6HR MAX TEMP:  78;

INDIANAPOLIS   MOCLDY    73  55  53 S5        30.11R
6HR MIN TEMP:  73; 6HR MAX TEMP:  78;

-EAGLE CREEK   PTCLDY    74  61  63 CALM      30.11S
6HR MIN TEMP:  74; 6HR MAX TEMP:  79;

KOKOMO *+      CLEAR     70  57  64 NE3       30.14S
6HR MIN TEMP:  70; 6HR MAX TEMP:  75;

MARION +       CLEAR     69  49  49 CALM      30.15R
MT COMFORT *+  CLEAR     70  59  68 E3        30.14R
SHELBYVILLE    CLEAR     72  61  68 CALM      30.12S
6HR MIN TEMP:  72; 6HR MAX TEMP:  80;

ZIONSVILLE +   PTCLDY    70  60  71 CALM      30.14S
6HR MIN TEMP:  70; 6HR MAX TEMP:  78;


$$

INZ033-034-041-042-049-050-058-059-280100-
EAST CENTRAL INDIANA

CITY           SKY/WX    TMP DP  RH WIND       PRES   REMARKS
MUNCIE         CLEAR     67  57  70 NE5       30.14S
6HR MIN TEMP:  67; 6HR MAX TEMP:  74;


$$

INZ060-061-067>069-081>083-085>088-280100-
SOUTHWEST INDIANA

CITY           SKY/WX    TMP DP  RH WIND       PRES   REMARKS
EVANSVILLE     CLEAR     77  60  55 CALM      30.09F
6HR MIN TEMP:  77; 6HR MAX TEMP:  83;

HUNTINGBURG *+ CLEAR     75  61  60 CALM      30.10F
6HR MIN TEMP:  75; 6HR MAX TEMP:  81;

WASHINGTON +   PTCLDY    77  56  49 CALM      30.10S
6HR MIN TEMP:  77; 6HR MAX TEMP:  82;


$$

INZ062-063-066-070>080-084-089>092-280100-
SOUTH CENTRAL AND SOUTHEAST INDIANA

CITY           SKY/WX    TMP DP  RH WIND       PRES   REMARKS
BLOOMINGTON    PTCLDY    69  63  81 CALM      30.12S
6HR MIN TEMP:  69; 6HR MAX TEMP:  81;

MADISON *+     CLEAR     70  55  60 E3        30.15S
SEYMOUR +      CLEAR     70  61  73 CALM      30.11F

$$



USA.gov is the U.S. government's official web portal to all federal, state and local government web resources and services.